Regional Weather Roundup
Issued by NWS Northern Indiana

Home | Current Version | Previous Version | Text Only | Print | Product List | Glossary Off
Versions: 1 2 3 4 5 6 7 8 9 10 11 12 13 14 15 16 17 18 19 20 21 22 23 24 25 26 27 28 29 30 31 32 33 34 35 36 37 38 39 40 41 42 43 44 45 46 47 48 49 50

254
ASUS43 KIWX 230200
RWRIWX

KIWX WEATHER ROUNDUP
NATIONAL WEATHER SERVICE NORTHERN INDIANA
1000 PM EDT SUN APR 22 2018

NOTE: "FAIR" INDICATES FEW OR NO CLOUDS BELOW 12,000 FEET WITH NO
SIGNIFICANT WEATHER AND/OR OBSTRUCTIONS TO VISIBILITY.

* THESE STATIONS ARE NOT UNDER NWS QUALITY CONTROL. THEY ALSO MAY NOT
  REPORT WEATHER SUCH AS PRECIPITATION OR FOG.

INZ001>027-230300-
NORTHERN INDIANA

CITY           SKY/WX    TMP DP  RH WIND       PRES   REMARKS
GARY*          MOCLDY    43  32  65 NE8       30.27R
KNOX*          FAIR      54  27  35 E9        30.25R
SOUTH BEND     FAIR      54  18  24 E9        30.28S
GOSHEN         FAIR      50  23  34 E8        30.27S
MONTICELLO*    FAIR      56  26  31 NE12      30.20S
ROCHESTER*     FAIR      54  23  30 E10       30.25S
WARSAW*        FAIR      48  27  43 E6        30.26S
FORT WAYNE     MOCLDY    51  25  36 E16       30.26S

$$
INZ028>050-230300-
CENTRAL INDIANA

CITY           SKY/WX    TMP DP  RH WIND       PRES   REMARKS
LAFAYETTE      FAIR      55  32  41 NE10      30.18S
KOKOMO*        FAIR      53  28  38 NE16      30.22S
MUNCIE*        FAIR      55  32  41 NE12      30.20F
INDIANAPOLIS   CLOUDY    59  29  31 NE13      30.16S

$$
MIZ043>046-050>051-056>058-064>065-071>073-077>080-230300-
SOUTHWEST LOWER MICHIGAN

CITY           SKY/WX    TMP DP  RH WIND       PRES   REMARKS
BATTLE CREEK   FAIR      54  25  32 SE9       30.31R
BENTON HARBOR  FAIR      44  32  62 CALM      30.28R
COLDWATER*     FAIR      50  21  32 E7        30.30S
HILLSDALE*     FAIR      45  19  36 SE5       30.30S
HOLLAND        FAIR      52  29  41 E5        30.30R
GRAND RAPIDS   FAIR      53  26  35 E6        30.30R
KALAMAZOO      FAIR      55  24  30 SE6       30.31R
THREE RIVERS*  FAIR      54  23  30 SE6       30.30R

$$
OHZ001>008-015>018-024>025-230300-
NORTHWEST OHIO

CITY           SKY/WX    TMP DP  RH WIND       PRES   REMARKS
WAUSEON*       FAIR      46  23  39 E10       30.30S
DEFIANCE       FAIR      48  23  37 NE9       30.29S
FINDLAY        FAIR      50  20  30 NE14      30.26S
TOLEDO EXPRESS FAIR      47  24  40 E8        30.30S
TOLEDO METCALF FAIR      45  27  49 NE7       30.31F
LIMA           FAIR      48  24  39 NE9       30.25S

$$
AND FOR LAKE MICHIGAN COASTAL AND OPEN LAKE BUOY OBSERVATIONS

STATION/POSITION TEMP    WIND        PRES    VSBY  WAVE
                 AIR SEA DIR/SP/G                  HT/PER
                 (F)     (DEG/KT/KT) (MB)    (MI)  (FT/S)
CALUMET HARBOR    42     350/  8/ 10 1024.4R
MICHIGAN CITY     42      40/ 13/ 14   N/A
BURNS HARBOR      42      60/ 11/ 13 1025.1S
SAINT JOSEPH      45      30/  4/  6 1025.7

$$
&&




USA.gov is the U.S. government's official web portal to all federal, state and local government web resources and services.